User: anonymous   Login
Location: Petruro
(41.0333°N, 14.7833°E)
Time: 18:14:04
(UTC+00:00)
Language:

Meteor 1-10 Rocket - Orbit

View from above orbital plane
View from above orbital plane
View from above satellite
View from above satellite

Ground track
Ground track

The orbit data is extracted from the following two-line orbital elements,

1  5732U 71120B   21263.45241240  .00000018  00000-0  34021-5 0  9998
2  5732  81.2504  59.7628 0051412 348.6015  11.3985 14.06008024557612
Epoch (UTC): 20 September 2021 10:51:28
Eccentricity: 0.0051412
inclination: 81.2504°
perigee height: 836 km
apogee height: 910 km
right ascension of ascending node: 59.7628°
argument of perigee: 348.6015°
revolutions per day: 14.06008024
mean anomaly at epoch: 11.3985°
orbit number at epoch: 55761

The dashed part of the orbit path shows where the satellite is in the earth's shadow,  

DLR